SCP
1 1 1 2 2 2 2 2 2 2 2 1 1 1 1 1 1 1 1 1 1 1 0 0 0 0 0 0 0 0 0 0 0 0 0 0 0 0 0 0 0 0 0
1 1 1 2 2 2 2 2 2 2 2 1 1 1 1 1 1 1 1 1 1 1 0 0 0 0 0 0 0 0 0 0 0 0 0 0 0 0 0 0 0 0 0
1 1 1 1 2 2 2 1 1 1 1 1 1 1 1 1 1 1 1 1 1 1 0 0 0 0 0 0 0 0 0 0 0 0 0 0 0 0 0 0 0 0 0
1 1 1 1 1 1 1 1 1 1 1 1 1 1 1 1 1 1 1 1 1 1 0 0 0 0 0 0 0 0 0 0 0 0 0 0 0 0 0 0 0 0 0
1 1 1 1 1 1 1 1 1 1 1 1 1 1 1 1 1 1 1 1 1 1 1 1 1 0 0 0 0 0 0 0 0 0 0 0 0 0 0 0 0 0 0
0 1 1 1 1 1 1 1 2 1 1 1 1 1 1 1 1 1 1 1 1 1 1 1 1 1 0 0 0 0 0 0 0 0 0 0 0 0 0 0 0 0 0
0 1 1 1 1 1 1 1 2 1 1 1 1 1 1 1 1 1 1 1 1 1 1 1 1 1 0 0 0 0 0 0 0 0 0 0 0 0 0 0 0 0 0
0 0 1 1 1 1 1 1 2 1 1 1 1 1 1 1 1 1 1 1 1 1 1 1 1 1 0 0 0 0 0 0 0 0 0 0 0 0 0 0 0 0 0
0 1 1 1 1 1 1 1 2 1 1 1 1 1 1 1 1 1 1 1 1 1 1 1 1 1 1 0 0 0 0 0 0 0 0 0 0 0 0 0 0 0 0
0 1 1 1 1 1 1 1 1 1 1 1 1 1 1 1 1 1 1 1 1 1 1 1 1 1 1 0 0 0 0 0 0 0 0 0 0 0 0 0 0 0 0
0 1 1 1 1 1 1 1 1 1 1 1 1 1 1 1 1 1 1 1 1 1 1 1 1 1 1 1 0 0 0 0 0 0 0 0 0 0 0 0 0 0 0
0 1 1 1 1 1 1 1 1 1 1 1 1 1 1 1 1 1 1 1 1 1 1 1 1 1 1 1 0 0 0 0 0 0 0 0 0 0 0 0 0 0 0
0 1 1 1 1 1 1 1 1 1 1 1 1 1 1 1 1 1 1 1 1 1 1 1 1 1 1 0 0 0 0 0 0 0 0 0 0 0 0 0 0 0 0
1 1 1 1 1 1 1 1 1 1 1 1 1 1 1 1 1 1 1 1 1 1 1 1 1 1 0 0 0 0 0 0 0 0 0 0 0 0 0 0 0 0 0
0 1 1 1 1 1 1 1 1 1 1 1 1 1 1 1 1 1 1 1 1 1 1 1 1 1 0 0 0 0 0 0 0 0 0 0 0 0 0 0 0 0 0
0 1 1 1 1 1 1 1 1 1 1 1 1 1 1 1 1 1 1 1 1 1 1 1 1 1 0 0 0 0 0 0 0 0 0 0 0 0 0 0 0 0 0
0 0 1 1 1 1 1 1 1 1 1 1 1 1 1 1 1 1 1 1 1 1 1 1 1 1 0 0 0 0 0 0 0 0 0 0 0 0 0 0 0 0 0
1 1 1 1 1 1 1 1 1 1 1 1 1 1 1 1 1 1 1 1 1 1 1 1 1 1 0 0 0 0 0 0 0 0 0 0 0 0 0 0 0 0 0
1 1 1 1 1 1 1 1 1 1 1 1 1 1 1 1 1 1 1 1 1 1 1 1 1 1 0 0 0 0 0 0 0 0 0 0 0 0 0 0 0 0 0
1 1 1 1 1 1 1 1 1 1 1 1 1 1 1 1 1 1 1 1 1 1 1 1 1 0 0 0 0 0 0 0 0 0 0 0 0 0 0 0 0 0 0
1 1 1 1 1 1 1 1 1 1 1 1 1 1 1 1 1 1 1 1 1 1 1 1 1 0 0 0 0 0 0 0 0 0 0 0 0 0 0 0 0 0 0
1 1 1 1 1 1 1 1 1 1 1 1 1 1 1 1 1 1 1 1 1 1 1 1 0 0 0 0 0 0 0 0 0 0 0 0 0 0 0 0 0 0 0
1 1 1 1 1 1 1 1 1 1 1 1 1 1 1 1 1 1 1 1 1 1 0 0 0 0 0 0 0 0 0 0 0 0 0 0 0 0 0 0 0 0 0
1 1 1 1 1 1 1 1 1 1 1 1 1 1 1 1 1 1 1 1 1 1 0 0 0 0 0 0 0 0 0 0 0 0 0 0 0 0 0 0 0 0 0
1 1 1 1 1 1 1 1 1 1 1 1 1 1 1 1 1 1 1 1 0 0 0 0 0 0 0 0 0 0 0 0 0 0 0 0 0 0 0 0 0 0 0
0 0 0 0 0 1 1 1 1 1 1 1 1 1 1 1 1 1 0 0 0 0 0 0 0 0 0 0 0 0 0 0 0 0 0 0 0 0 0 0 0 0 0
Wind_Speed
9 9 9 9 9 7 7 7 6 6 4 3 3 3 3 3 3 3 4 4 3 3 2 1 2 2 1 1 2 1 1 1 1 1 0 0 0 1 2 1 1 2 2
8 9 10 9 9 8 7 7 6 6 5 3 3 3 3 3 3 2 4 4 4 3 4 3 2 2 1 2 2 2 1 1 1 1 1 0 0 1 2 2 2 2 2
9 9 9 9 9 8 8 7 6 6 5 4 3 2 2 2 3 3 3 4 4 3 2 3 2 2 2 2 3 3 3 2 1 1 1 1 1 1 0 2 2 2 1
8 9 9 8 9 9 8 7 7 6 5 5 4 4 4 3 3 3 3 4 4 4 4 3 3 2 2 2 3 3 2 2 2 2 1 1 1 1 1 1 1 2 2
7 8 9 8 8 8 8 8 7 6 6 5 4 4 3 3 2 3 4 4 3 3 4 3 3 3 2 2 2 1 2 2 2 1 1 1 1 2 2 1 1 1 2
6 6 7 8 7 7 7 7 7 7 6 6 5 4 3 3 3 4 4 3 3 3 4 4 3 3 2 2 2 2 2 2 1 1 1 1 1 1 1 2 2 2 2
6 6 7 8 7 7 7 7 7 7 7 7 5 5 4 4 4 4 4 4 3 3 4 4 4 3 3 3 3 2 2 2 2 1 2 1 1 1 0 1 1 1 1
4 5 6 6 6 6 7 7 7 6 7 7 6 5 5 4 3 4 3 3 3 3 4 4 4 4 4 4 3 3 3 2 2 3 2 1 2 1 1 1 1 1 1
4 5 5 5 5 6 6 6 6 6 5 6 6 5 5 5 4 4 4 3 2 3 4 4 4 4 4 3 3 2 2 2 3 2 2 2 2 2 1 1 1 2 2
4 4 4 5 5 6 5 5 5 5 5 6 6 6 6 5 4 5 5 3 3 3 4 4 4 4 4 4 4 3 3 3 3 2 2 2 2 1 1 1 1 1 2
3 3 3 3 4 5 6 6 5 5 5 5 6 5 5 5 5 4 4 4 3 3 4 4 4 4 4 4 3 3 4 4 3 3 3 3 2 1 1 1 1 1 1
3 3 3 3 3 2 3 4 5 5 5 4 4 4 5 5 5 4 4 4 4 4 4 4 4 4 4 4 4 4 4 4 3 3 2 2 2 2 1 1 2 2 1
4 3 3 3 2 2 1 2 3 4 4 5 5 4 4 5 5 4 4 4 4 4 4 4 4 4 4 4 4 4 4 4 3 3 3 3 2 2 1 2 2 2 2
4 3 3 3 3 2 1 1 1 2 3 4 5 4 4 4 4 4 4 4 4 4 4 4 5 5 5 5 4 4 4 3 3 3 3 3 3 3 2 3 2 2 1
4 4 4 4 3 2 2 1 0 1 1 3 4 5 5 4 4 4 4 4 4 5 4 4 4 4 4 5 4 4 4 3 3 3 3 3 3 3 3 3 2 2 2
4 4 4 3 3 2 1 1 1 1 1 2 3 4 4 5 5 5 4 4 4 4 4 5 5 5 4 4 5 4 3 3 3 3 3 3 4 4 4 4 3 3 3
5 5 4 3 2 2 2 1 1 1 1 2 3 3 4 5 5 6 5 5 4 4 4 4 4 4 3 5 5 5 4 4 3 3 3 4 3 4 3 3 4 4 6
5 5 4 3 2 1 2 1 1 0 1 2 3 3 3 4 4 5 5 4 4 4 4 3 3 3 4 5 6 6 5 4 4 4 4 4 3 3 2 3 3 4 4
4 3 4 3 2 1 1 1 1 1 2 2 2 3 3 4 4 4 5 5 4 4 4 4 4 4 4 5 6 6 4 4 5 5 5 5 4 4 4 3 3 3 4
4 3 3 3 2 1 1 1 1 1 2 2 2 2 2 3 4 4 4 4 4 4 4 4 4 4 4 5 6 6 4 4 4 4 5 6 6 5 6 4 3 4 4
5 4 3 3 3 2 1 1 2 2 3 2 3 3 2 3 3 3 3 4 4 4 4 4 4 4 5 6 7 7 4 4 4 4 3 3 5 7 7 5 4 5 4
5 4 3 3 2 2 2 2 2 2 3 3 3 3 3 3 3 3 3 4 4 5 5 4 4 3 4 6 7 9 8 5 3 3 2 2 5 6 6 5 6 6 4
4 4 4 3 3 3 2 3 3 3 3 3 3 2 3 3 2 3 4 5 5 5 4 4 5 4 4 5 8 9 8 6 3 2 2 3 6 6 6 8 7 5 4
3 3 3 4 3 3 3 3 3 3 2 3 3 2 2 3 2 3 4 4 4 5 4 4 4 3 4 4 4 4 5 5 4 3 3 4 6 6 5 4 4 5 5
4 3 3 3 4 3 3 3 3 3 3 3 3 3 3 3 3 3 2 3 3 4 5 4 3 3 3 2 5 4 3 3 3 2 2 3 3 3 4 4 4 4 4
4 4 4 4 4 4 4 4 3 3 3 3 3 3 3 2 3 3 2 1 2 4 5 3 2 1 4 6 6 5 4 3 3 2 3 3 3 4 3 3 3 3 4
Wind_Direction
151 140 138 143 143 146 153 157 158 149 154 159 168 178 173 171 167 162 152 158 173 172 187 173 159 198 188 172 173 149 184 202 166 101 69 359 313 142 142 171 159 163 152
147 142 147 149 153 157 159 160 162 159 163 162 167 175 171 176 169 160 148 161 175 171 183 181 189 173 163 187 180 170 193 224 176 167 159 178 268 254 184 170 177 169 158
151 153 156 160 159 163 167 168 168 165 167 162 166 167 156 168 158 155 151 165 167 173 184 165 200 167 178 185 195 195 200 205 218 211 195 204 198 169 189 198 160 148 153
156 156 158 160 164 169 167 162 163 164 166 170 181 179 177 183 171 157 157 170 171 172 172 173 178 174 190 179 206 188 204 207 213 206 215 209 165 156 167 249 167 177 185
155 157 160 161 162 164 165 164 161 166 171 180 182 188 190 181 160 155 157 167 175 181 174 173 167 169 180 184 215 161 208 211 223 213 216 221 221 223 173 205 200 205 203
144 154 156 156 158 159 157 159 161 168 175 182 185 194 198 176 166 164 167 177 176 180 182 179 168 175 185 171 180 182 216 240 245 253 240 215 217 228 196 187 200 207 223
150 155 157 156 160 163 158 155 163 174 178 183 192 196 197 186 181 179 182 184 181 177 180 186 175 178 181 175 178 187 210 221 223 247 252 263 259 237 212 183 207 205 232
147 159 157 153 156 158 154 154 163 177 182 184 191 191 189 188 188 193 193 189 189 177 170 179 181 185 187 188 179 189 207 202 213 236 245 273 272 244 199 194 176 224 234
141 145 142 144 152 154 147 154 164 172 182 184 184 188 193 198 191 183 196 199 187 173 167 177 187 192 189 187 183 201 208 197 217 233 230 251 257 246 239 206 190 205 235
117 128 131 135 141 147 150 152 155 169 180 187 187 189 193 198 193 191 190 188 186 175 167 177 186 191 193 193 189 195 202 205 218 223 223 239 269 277 251 239 246 237 235
89 111 120 129 141 150 157 156 158 166 176 189 192 185 184 191 193 197 189 183 181 181 180 180 185 194 193 191 195 205 196 207 217 221 212 219 241 254 252 245 246 259 231
56 79 102 111 125 138 156 158 163 176 184 187 185 185 182 185 191 197 189 181 183 186 184 186 190 196 191 192 200 213 203 207 212 219 221 226 232 228 246 234 237 239 228
38 47 75 85 109 121 116 148 165 177 182 182 184 186 190 189 191 191 182 183 186 190 189 189 193 196 193 197 207 211 212 214 214 212 218 221 223 227 226 237 239 241 246
41 37 56 65 61 60 60 105 152 170 178 179 182 191 203 195 192 189 184 183 187 192 192 194 200 199 200 203 206 210 216 219 220 216 220 225 217 217 221 233 230 243 250
55 46 45 48 46 57 43 355 142 172 188 187 190 195 197 196 193 191 191 188 189 196 196 196 204 203 206 206 198 209 214 214 222 212 214 224 203 210 221 231 223 244 243
32 29 28 35 29 29 8 303 251 219 203 214 205 198 194 197 199 196 192 189 193 197 195 201 206 207 212 178 181 206 220 217 223 217 217 216 193 193 204 214 218 227 238
19 11 9 19 14 359 340 292 242 209 212 226 215 200 200 197 197 201 195 193 195 199 201 207 202 197 198 186 191 210 223 221 218 220 226 239 221 186 193 200 213 225 229
13 0 352 2 4 5 354 344 319 206 229 237 228 202 204 196 189 189 188 195 195 203 203 205 205 200 202 196 199 205 221 224 220 220 223 229 229 217 203 212 222 223 219
14 2 354 344 346 352 344 322 298 254 245 241 241 213 208 200 195 194 192 193 196 199 204 207 208 209 199 194 197 200 218 221 223 223 221 219 216 206 199 211 228 239 246
21 8 2 355 355 344 343 316 306 292 281 262 252 243 229 204 204 196 192 191 195 199 205 209 209 204 194 195 198 201 228 228 228 223 219 219 219 205 193 207 226 240 251
17 15 9 3 357 345 338 321 314 305 296 285 271 254 240 218 205 193 194 192 198 207 211 209 208 202 197 188 195 196 221 240 241 232 227 213 198 205 211 216 232 240 250
9 9 5 5 357 349 341 321 308 304 302 293 282 264 238 233 215 195 198 206 205 209 213 210 213 207 192 189 197 201 216 245 256 258 251 186 181 202 216 223 235 242 245
1 356 353 353 355 348 338 322 317 313 303 297 279 265 249 237 211 197 204 209 207 210 214 212 215 209 196 187 189 199 215 229 249 276 274 237 215 218 224 232 234 228 228
342 342 345 339 333 334 331 318 311 310 305 293 282 254 243 238 226 214 211 211 210 209 214 212 213 206 192 181 179 194 207 212 225 248 256 241 234 234 235 228 227 222 227
335 338 338 323 321 327 325 313 315 316 307 299 284 267 251 239 224 230 240 221 215 210 213 221 213 203 199 174 169 177 193 200 207 210 217 222 219 220 217 214 216 219 222
327 329 329 321 320 322 319 321 320 310 303 293 288 282 270 245 223 213 228 277 237 191 189 195 202 172 156 145 142 149 153 165 173 190 227 231 229 226 230 229 228 226 229